This is the latest recevied weather packets stored in our database for station/object KI4BSX. If no packets are shown the sender has not sent any weather packets the latest 10 day(s).
| Time | Temp. | Humidity | Pressure | Rain* | Wind** | Luminosity | Snow |
|---|---|---|---|---|---|---|---|
| 1778177123 | 22.22° C | 99% | 1012.5 hPa | 0 mm | - | - | - |
| 1778176820 | 22.22° C | 99% | 1012.9 hPa | 0 mm | - | - | - |
| 1778176516 | 22.22° C | 99% | 1012.6 hPa | 0 mm | - | - | - |
| 1778176214 | 22.22° C | 99% | 1012.8 hPa | 0 mm | - | - | - |
| 1778175910 | 22.22° C | 99% | 1012.9 hPa | 0 mm | - | - | - |
| 1778175608 | 22.22° C | 99% | 1013.1 hPa | 0 mm | - | - | - |
| 1778175305 | 21.67° C | 99% | 1012.7 hPa | 0 mm | - | - | - |
| 1778175002 | 21.11° C | 99% | 1012.7 hPa | 0 mm | - | - | - |
| 1778174698 | 21.67° C | 99% | 1012.8 hPa | 0 mm | - | - | - |
| 1778174395 | 21.11° C | 99% | 1012.6 hPa | 0 mm | - | - | - |
| 1778174090 | 21.11° C | 99% | 1012.8 hPa | 0 mm | - | - | - |
| 1778173788 | 20.56° C | 99% | 1012.8 hPa | 0 mm | - | - | - |
| 1778173484 | 20.56° C | 99% | 1012.9 hPa | 0 mm | - | - | - |
| 1778173181 | 21.11° C | 99% | 1012.9 hPa | 0 mm | - | - | - |
| 1778172877 | 20.56° C | 99% | 1012.8 hPa | 0 mm | - | - | - |
| 1778172573 | 20° C | 99% | 1012.8 hPa | 0 mm | - | - | - |
| 1778172270 | 20° C | 99% | 1012.9 hPa | 0 mm | - | - | - |
| 1778171967 | 19.44° C | 99% | 1012.8 hPa | 0 mm | - | - | - |
| 1778171664 | 19.44° C | 99% | 1012.9 hPa | 0 mm | - | - | - |
| 1778171361 | 19.44° C | 99% | 1013 hPa | 0 mm | - | - | - |
| 1778171056 | 19.44° C | 99% | 1012.9 hPa | 0 mm | - | - | - |
| 1778170754 | 19.44° C | 99% | 1012.9 hPa | 0 mm | - | - | - |
| 1778170450 | 18.89° C | 99% | 1012.9 hPa | 0 mm | - | - | - |
| 1778170147 | 18.89° C | 99% | 1013 hPa | 0 mm | - | - | - |
| 1778169843 | 18.89° C | 99% | 1013 hPa | 0 mm | - | - | - |
* Rain latest hour (hover to see other rain measurements)
** Current wind speed in m/s (hover to see current wind gust speed)